Starlink 11081

operational
NORAD ID: 60405 Int'l Des: 2024-141 Owner: SPXS Country: US Constellation: starlink
LEOCIRCULAR

Starlink 11081について

説明を読み込み中...

リアルタイム位置

3D地球を読み込み中...

次回通過

高度履歴

Altitude vs Time

uPlot chart will show altitude changes over time

軌道要素

1 60405U 24141H 25308.47781778 -.00003393 00000-0 -23165-4 0 9995
2 60405 53.1583 343.7517 0002069 52.5596 307.5610 15.69686220 72029
Epoch: Nov 4, 2025 • Age: 8 hours

現在のステータス

高度 360.2 km
速度 7.70 km/s
衛星直下点 30.14°N, 34.42°E
打ち上げ日 Aug 10, 2024
運用期間 1.2 years
タイプ internet

技術仕様

分類 Payload
質量 960.00 kg
乾燥質量 910.00 kg
総質量 960.00 kg
長さ 0.30 m
直径 4.10 m
スパン 29.00 m
形状 Box + pan
製造者 SPXS
バスタイプ Starlink V2MD
フェーズステータス In Orbit
所有者/国 SPXS/US

大規模コンステレーション

Loading constellations...